Sherbrooke, Quebec

11:59 PM EDT on September 21, 2017 (GMT -0400)
Sherbrooke

Weather History for CYSC - October, 2012

Change the Weather History Date:

Sunday, October 7, 2012

  Actual Average Record
Temperature  
Mean Temperature 44 °F -  
Max Temperature 49 °F 51 °F 77 °F (2016)
Min Temperature 40 °F 31 °F 26 °F (1999)
Degree Days  
Heating Degree Days 20    
Moisture  
Dew Point 38 °F    
Average Humidity 79    
Maximum Humidity 93    
Minimum Humidity 51    
Precipitation  
Precipitation 0.00 in 0.12 in - ()
Sea Level Pressure  
Sea Level Pressure 30.01 in    
Wind  
Wind Speed 6 mph ()    
Max Wind Speed 13 mph    
Max Gust Speed 17 mph    
Visibility 9.2 miles    
Events Rain    
Averages and records for this station are not official NWS values.
T = Trace of Precipitation, MM = Missing Value Source: Averaged Metar Reports

Daily Weather History Graph

Daily Weather History Graph

Search for Another Location

Airport or City:

Trip Planner

Search our weather history database for the weather conditions in past years. The results will help you decide how hot, cold, wet, or windy it might be!

Date:

Astronomy

Oct. 07, 2012 Rise Set
Actual Time 6:53 AM EDT 6:14 PM EDT
Civil Twilight 6:23 AM EDT 6:44 PM EDT
Nautical Twilight 5:49 AM EDT 7:18 PM EDT
Astronomical Twilight 5:14 AM EDT 7:53 PM EDT
Moon 11:12 PM EDT (10/7) 1:40 PM EDT (10/7)
Length of Visible Light 12h 20m
Length of Day
11h 21m
Waning Gibbous, 56% of the Moon is Illuminated
Oct 7
Waning Gibbous
Oct 8
Last Quarter
Oct 15
New
Oct 21
First Quarter
Oct 29
Full

Hourly Weather History & Observations

Time (EDT) Temp. Windchill Dew Point Humidity Pressure Visibility Wind Dir Wind Speed Gust Speed Precip Events Conditions
12:00 AM 44.6 °F 43.1 °F 41.0 °F 87% 29.88 in 9.0 mi South 3.5 mph - N/A   Overcast
1:00 AM 44.6 °F 38.8 °F 41.0 °F 87% 29.89 in 9.0 mi WSW 11.5 mph - N/A   Scattered Clouds
2:00 AM 43 °F - 39 °F 80% 29.91 in 10 mi WSW 8.1 mph - -   Clear
2:00 AM 42.8 °F 38.6 °F 39.2 °F 87% 29.91 in 9.0 mi WSW 6.9 mph - N/A   Clear
3:00 AM 42.8 °F - 39.2 °F 87% 29.93 in 9.0 mi Variable 2.3 mph - N/A   Overcast
3:20 AM 44.6 °F 42.2 °F 39.2 °F 81% 29.93 in 9.0 mi West 4.6 mph - N/A   Overcast
3:34 AM 44.6 °F 41.4 °F 39.2 °F 81% 29.93 in 9.0 mi WSW 5.8 mph - N/A   Overcast
4:00 AM 44.6 °F 39.7 °F 39.2 °F 81% 29.94 in 9.0 mi WSW 9.2 mph - N/A   Overcast
5:00 AM 44 °F - 40 °F 79% 29.96 in 10 mi SSE 2.3 mph - -   Clear
5:00 AM 42.8 °F - 39.2 °F 87% 29.96 in 9.0 mi Variable 2.3 mph - N/A   Overcast
5:17 AM 42.8 °F 37.0 °F 39.2 °F 87% 29.96 in 9.0 mi West 10.4 mph - N/A   Overcast
5:20 AM 42.8 °F 36.2 °F 39.2 °F 87% 29.97 in 9.0 mi West 12.7 mph - N/A   Overcast
5:29 AM 42.8 °F 37.5 °F 39.2 °F 87% 29.97 in 9.0 mi WSW 9.2 mph - N/A   Overcast
5:40 AM 42.8 °F 37.5 °F 39.2 °F 87% 29.98 in 9.0 mi WSW 9.2 mph - N/A   Overcast
6:00 AM 42.8 °F 37.0 °F 37.4 °F 81% 29.98 in 9.0 mi WSW 10.4 mph 17.3 mph N/A   Overcast
7:00 AM 42.8 °F 39.3 °F 37.4 °F 81% 30.02 in 9.0 mi WSW 5.8 mph - N/A   Overcast
7:47 AM 41.0 °F 36.4 °F 37.4 °F 87% 30.04 in 9.0 mi WSW 6.9 mph - N/A   Scattered Clouds
8:00 AM 41 °F - 38 °F 83% 30.04 in 10 mi WSW 6.9 mph - -  
8:00 AM 41.0 °F 37.1 °F 37.4 °F 87% 30.04 in 9.0 mi WSW 5.8 mph - N/A   Partly Cloudy
9:00 AM 42.8 °F 39.3 °F 39.2 °F 87% 30.04 in 9.0 mi West 5.8 mph - N/A   Clear
10:00 AM 44.6 °F 40.2 °F 37.4 °F 76% 30.03 in 9.0 mi WSW 8.1 mph - N/A   Scattered Clouds
11:00 AM 46 °F - 38 °F 63% 30.04 in 10 mi West 5.8 mph - -  
11:00 AM 46.4 °F 43.5 °F 37.4 °F 71% 30.04 in 9.0 mi West 5.8 mph - N/A   Scattered Clouds
12:00 PM 46.4 °F 42.4 °F 35.6 °F 66% 30.04 in 9.0 mi WSW 8.1 mph - N/A   Overcast
12:51 PM 46.4 °F 41.1 °F 37.4 °F 71% 30.05 in 9.0 mi West 11.5 mph - N/A Rain Light Rain
1:00 PM 46.4 °F 41.5 °F 37.4 °F 71% 30.05 in 9.0 mi WSW 10.4 mph - N/A Rain Light Rain
1:14 PM 46.4 °F 41.1 °F 35.6 °F 66% 30.05 in 9.0 mi West 11.5 mph - N/A   Overcast
2:00 PM 46 °F - 37 °F 62% 30.05 in 10 mi SW 9.2 mph - -   Overcast
2:00 PM 46.4 °F 42.4 °F 37.4 °F 71% 30.05 in 9.0 mi WSW 8.1 mph - N/A   Overcast
2:16 PM 46.4 °F 41.9 °F 39.2 °F 76% 30.04 in 9.0 mi SW 9.2 mph - N/A Rain Light Rain
2:27 PM 48.2 °F - 37.4 °F 66% 30.04 in 9.0 mi SW 11.5 mph - N/A   Overcast
3:00 PM 46.4 °F 41.9 °F 37.4 °F 71% 30.04 in 9.0 mi SW 9.2 mph - N/A   Overcast
4:00 PM 48.2 °F - 35.6 °F 62% 30.03 in 9.0 mi West 5.8 mph - N/A   Overcast
5:00 PM 48 °F - 36 °F 51% 30.03 in 10 mi WSW 6.9 mph - -   Overcast
5:00 PM 48.2 °F - 35.6 °F 62% 30.03 in 9.0 mi SW 6.9 mph - N/A   Overcast
6:00 PM 44.6 °F - 35.6 °F 71% 30.04 in 9.0 mi Calm Calm - N/A   Overcast
7:00 PM 41.0 °F - 37.4 °F 87% 30.04 in 9.0 mi SE 2.3 mph - N/A   Mostly Cloudy
8:00 PM 40 °F - 38 °F 92% 30.04 in 10 mi North 1.2 mph - -  
8:00 PM 41.0 °F - 39.2 °F 93% 30.04 in 9.0 mi Calm Calm - N/A   Mostly Cloudy
9:00 PM 41.0 °F - 37.4 °F 87% 30.05 in 9.0 mi Calm Calm - N/A   Overcast
11:00 PM 41 °F - 38 °F 85% 30.08 in 10 mi SSW 3.5 mph - -   Overcast
11:00 PM 41.0 °F - 37.4 °F 87% 30.08 in 9.0 mi SSW 2.3 mph - N/A   Overcast
11:10 PM 41.0 °F - 39.2 °F 93% 30.07 in 9.0 mi Variable 2.3 mph - N/A Rain Light Rain